Content
SEND FEEDBACK

Daily
Averages
Monthly
Summary
United States of America

TRUCKEE, CALIFORNIA


Home > North America > United States > California
Elevation: 5966 feet     Latitude: 39 20N     Longitude: 120 11W

WEATHER
 
SELECT A DAY
Number of Records: 288,916;   Date Range: 1/1/95 - 11/19/14
 
SHARE

PRINT THIS DATA

[ ← Previous Day ]
WEATHER ALMANAC - JANUARY 14, 2013
[ Next Day → ]
[ °C ]   °F
Weather ElementAverageHighLow
Temperature3.5 °F23 °F (3:50 pm)-11.2 °F (3:35 am)
Dewpoint-3.7 °F6.8 °F (11:45 am)-16.6 °F (3:35 am)
Humidity73.7 %92 % (9:35 pm)39 % (3:50 pm)
Barometer30.29 in30.39 in (10:55 pm)30.18 in (12:35 am)
Wind Speed0.8 mph10.4 mph (11:45 am)
Weather ElementAverage
Visibility10 mi
Wind DirectionNNE (30.8 °)

Weather ElementTotal
Precipitation---
Heating Degree Days59.1 (Base 65)
Averaged from 49 records on January 14, 2013
WEATHER CONDITIONS BREAKOUT
WIND DIRECTION BREAKOUT
WEATHER BY HOUR - JANUARY 14, 2013
[ °C ]   °F
Local TimeTemperatureDewpointHumidityBarometerVisibilityWind DirectionWind SpeedGust SpeedPrecipitationEventsConditions
12:35 AM-4.0 °F-9.4 °F78 %30.18 in10.0 miSouth (180°)3.5 mphClear
12:55 AM-7.6 °F-13.0 °F77 %30.18 in10.0 miCalmClear
1:15 AM-7.6 °F-11.2 °F84 %30.18 in10.0 miSSW (200°)3.5 mphClear
1:35 AM-9.4 °F-13.0 °F84 %30.18 in10.0 miCalmClear
1:55 AM-7.6 °F-13.0 °F77 %30.18 in10.0 miCalmClear
2:15 AM-7.6 °F-13.0 °F77 %30.19 in10.0 miCalmClear
2:35 AM-9.4 °F-14.8 °F77 %30.19 in10.0 miCalmClear
2:55 AM0.0 °F0.0 °F30.19 in10.0 miCalmClear
3:15 AM-9.4 °F-13.0 °F84 %30.19 in10.0 miCalmClear
3:35 AM-11.2 °F-16.6 °F77 %30.19 in10.0 miCalmClear
3:55 AM-11.2 °F-16.6 °F77 %30.20 in10.0 miCalmClear
4:15 AM-7.6 °F-11.2 °F84 %30.20 in10.0 miSSW (200°)3.5 mphClear
4:35 AM-9.4 °F-13.0 °F84 %30.20 in10.0 miCalmClear
4:55 AM-11.2 °F-16.6 °F77 %30.21 in10.0 miCalmClear
5:15 AM-11.2 °F-16.6 °F77 %30.21 in10.0 miCalmClear
5:35 AM-9.4 °F-13.0 °F84 %30.22 in10.0 miCalmClear
6:55 AM-9.4 °F-14.8 °F77 %30.25 in10.0 miCalmClear
7:45 AM-11.2 °F-16.6 °F77 %30.27 in10.0 miCalmClear
8:45 AM-7.6 °F-13.0 °F77 %30.29 in10.0 miCalmPartly Cloudy
9:45 AM-2.2 °F-7.6 °F78 %30.32 in10.0 miCalmClear
10:55 AM6.8 °F1.4 °F79 %30.28 in10.0 miNNE (20°)5.8 mphPartly Cloudy
11:45 AM14.0 °F6.8 °F73 %30.28 in10.0 miNNW (340°)10.4 mphPartly Cloudy
12:55 PM19.4 °F1.4 °F46 %30.29 in10.0 miCalmClear
1:45 PM19.4 °F1.4 °F46 %30.29 in10.0 miCalmScattered Clouds
2:45 PM19.4 °F1.4 °F46 %30.32 in10.0 miCalmScattered Clouds
3:50 PM23.0 °F1.4 °F39 %30.33 in10.0 miCalmScattered Clouds
4:45 PM19.4 °F1.4 °F46 %30.32 in10.0 miCalmScattered Clouds
4:55 PM23.0 °F1.4 °F39 %30.33 in10.0 miCalmClear
5:15 PM19.4 °F1.4 °F46 %30.33 in10.0 miCalmSnowLight Snow
5:35 PM15.8 °F3.2 °F58 %30.33 in10.0 miCalmSnowLight Snow
5:55 PM17.6 °F3.2 °F53 %30.34 in10.0 miCalmSnowLight Snow
6:15 PM14.0 °F5.0 °F67 %30.34 in10.0 miCalmSnowLight Snow
6:35 PM12.2 °F5.0 °F73 %30.34 in10.0 miCalmClear
6:55 PM10.4 °F3.2 °F73 %30.35 in10.0 miCalmClear
7:15 PM10.4 °F5.0 °F79 %30.35 in10.0 miCalmClear
7:35 PM10.4 °F3.2 °F73 %30.36 in10.0 miSSW (210°)3.5 mphClear
7:55 PM6.8 °F1.4 °F79 %30.36 in10.0 miCalmClear
8:15 PM8.6 °F3.2 °F79 %30.36 in10.0 miCalmClear
8:35 PM8.6 °F3.2 °F79 %30.35 in10.0 miCalmClear
8:55 PM8.6 °F3.2 °F79 %30.35 in10.0 miCalmClear
9:15 PM8.6 °F5.0 °F85 %30.36 in10.0 miCalmClear
9:35 PM6.8 °F5.0 °F92 %30.36 in10.0 miCalmClear
9:55 PM5.0 °F1.4 °F85 %30.36 in10.0 miCalmClear
10:15 PM6.8 °F3.2 °F85 %30.37 in10.0 miCalmClear
10:35 PM5.0 °F1.4 °F85 %30.38 in10.0 miSSW (200°)3.5 mphClear
10:55 PM3.2 °F-0.4 °F85 %30.39 in10.0 miSSE (160°)3.5 mphClear
11:15 PM5.0 °F1.4 °F85 %30.37 in10.0 miCalmClear
11:35 PM5.0 °F1.4 °F85 %30.38 in10.0 miCalmClear
11:55 PM1.4 °F-0.4 °F92 %30.39 in10.0 miCalmClear
Hourly data recorded from KTRK, located miles away from Truckee, California







STORIES FROM OUR PARTNERS